Location: Carson
(33.8314°N, 118.2820°W)
Time: 12:48:28
(UTC+00:00)

OAO 2 Rocket - Pass Details

Date: 23 November 2020
Orbit: 676 x 745 km, 35.0° (Epoch: 21 January)

Event Time Altitude Azimuth Distance (km) Brightness Sun altitude
Exits shadow 13:21:31 13° 242° (WSW) 1,928 5.2 -14.9°
Maximum altitude 13:25:55 65° 162° (SSE) 775 3.7 -14.0°
Drops below altitude 10° 13:31:03 10° 81° (E) 2,204 7.0 -13.0°
Sets 13:33:31 0° 78° (ENE) 3,137 7.8 -12.5°
